Location: Newark
(40.3500°N, 15.2333°E)
Time: 02:05:50
(UTC+00:00)

Altair - Pass Details

Date: 23 January 2020
Orbit: 1502 x 1682 km, 47.2° (Epoch: 19 February)

Event Time Altitude Azimuth Distance (km) Brightness Sun altitude
Rises 14:53:42 0° 298° (WNW) 4,928 10.5 10.9°
Reaches altitude 10° 14:57:01 10° 294° (WNW) 3,925 10.1 10.4°
Maximum altitude 15:06:31 50° 223° (SW) 2,006 9.0 8.9°
Drops below altitude 10° 15:15:42 10° 152° (SSE) 3,791 9.7 7.5°
Sets 15:18:51 0° 147° (SSE) 4,748 10.1 7.0°
